STAR ONE C2

Last updated on Thu Nov 21 2024 00:02:41 GMT+0000 (Coordinated Universal Time)

1 32768U 08018B 24325.28237675 -.00000275 00000+0 00000+0 0 9992 2 32768 0.0285 343.6696 0002909 264.1552 208.6383 1.00271676 60900
UTC large
Height (km)
Speed (km/s)
/
Latitude / Longitude
Inclination (degrees)
Orbital Period (minutes)
Azimuth
Elevation
Range (km)
Doppler Factor

Next 0 passes for location: London (51.5072 / 0.1276)

Sorry there are no passes over London.